Ocean City, MD

8:10 PM EDT on April 19, 2018 (GMT -0400)
Ocean City Municipal

Weather History for KOXB - February, 2012

Change the Weather History Date:

Tuesday, February 7, 2012

  Actual Average (KSBY) Record (KSBY)
Temperature  
Mean Temperature 42 °F -  
Max Temperature 55 °F 41 °F 69 °F (2008)
Min Temperature 30 °F 26 °F 1 °F (1996)
Degree Days  
Heating Degree Days 22    
Moisture  
Dew Point 31 °F    
Average Humidity 65    
Maximum Humidity 92    
Minimum Humidity 34    
Precipitation  
Precipitation 0.00 in - - ()
Sea Level Pressure  
Sea Level Pressure 30.13 in    
Wind  
Wind Speed 7 mph (NNW)    
Max Wind Speed 14 mph    
Max Gust Speed 18 mph    
Visibility 10 miles    
Events      
Averages and records for this station are not official NWS values.
T = Trace of Precipitation, MM = Missing Value Source: NWS Daily Summary

Daily Weather History Graph

Daily Weather History Graph

Search for Another Location

Airport or City:

Astronomy

Feb. 07, 2012 Rise Set
Actual Time 7:00 AM EST 5:29 PM EST
Civil Twilight 6:32 AM EST 5:56 PM EST
Nautical Twilight 6:01 AM EST 6:28 PM EST
Astronomical Twilight 5:30 AM EST 6:59 PM EST
Moon 5:36 PM EST (2/7) 6:28 AM EST (2/7)
Length of Visible Light 11h 24m
Length of Day
10h 28m
Full, 100% of the Moon is Illuminated
Feb 7
Full
Feb 7
Full
Feb 14
Last Quarter
Feb 21
New
Feb 29
First Quarter

Hourly Weather History & Observations

Time (EST) Temp. Windchill Dew Point Humidity Pressure Visibility Wind Dir Wind Speed Gust Speed Precip Events Conditions
12:53 AM 37.9 °F 32.1 °F 32.0 °F 79% 30.09 in 10.0 mi WSW 8.1 mph - N/A   Clear
1:53 AM 41.0 °F 36.4 °F 32.0 °F 70% 30.07 in 10.0 mi West 6.9 mph - N/A   Scattered Clouds
2:53 AM 41.0 °F 35.8 °F 33.1 °F 73% 30.06 in 10.0 mi WNW 8.1 mph - N/A   Overcast
3:53 AM 41.0 °F 36.4 °F 33.1 °F 73% 30.07 in 10.0 mi West 6.9 mph - N/A   Overcast
4:53 AM 39.9 °F 35.1 °F 33.1 °F 77% 30.07 in 10.0 mi WNW 6.9 mph - N/A   Overcast
5:53 AM 37.9 °F 33.5 °F 32.0 °F 79% 30.08 in 10.0 mi WNW 5.8 mph - N/A   Partly Cloudy
6:53 AM 37.9 °F 33.5 °F 30.0 °F 73% 30.10 in 10.0 mi WNW 5.8 mph - N/A   Clear
7:53 AM 41.0 °F 36.4 °F 28.9 °F 62% 30.11 in 10.0 mi NNW 6.9 mph - N/A   Clear
8:53 AM 46.0 °F 42.5 °F 27.0 °F 47% 30.13 in 10.0 mi NNW 6.9 mph - N/A   Clear
9:53 AM 48.9 °F - 27.0 °F 43% 30.14 in 10.0 mi NNW 6.9 mph - N/A   Clear
10:53 AM 52.0 °F - 26.1 °F 37% 30.14 in 10.0 mi North 13.8 mph - N/A   Clear
11:53 AM 52.0 °F - 26.1 °F 37% 30.13 in 10.0 mi NW 8.1 mph - N/A   Clear
12:53 PM 54.0 °F - 27.0 °F 35% 30.10 in 10.0 mi North 6.9 mph 16.1 mph N/A   Clear
1:53 PM 55.0 °F - 27.0 °F 34% 30.09 in 10.0 mi NW 8.1 mph - N/A   Clear
2:53 PM 51.1 °F - 33.1 °F 50% 30.10 in 10.0 mi ENE 8.1 mph 18.4 mph N/A   Clear
3:53 PM 50.0 °F - 33.1 °F 52% 30.12 in 10.0 mi ENE 9.2 mph - N/A   Clear
4:53 PM 48.0 °F - 33.1 °F 56% 30.14 in 10.0 mi ENE 4.6 mph - N/A   Clear
5:53 PM 42.1 °F - 33.1 °F 70% 30.16 in 10.0 mi Calm Calm - N/A   Clear
6:53 PM 37.0 °F - 32.0 °F 82% 30.18 in 10.0 mi Calm Calm - N/A   Clear
7:53 PM 35.1 °F - 33.1 °F 92% 30.19 in 10.0 mi Calm Calm - N/A   Clear
8:53 PM 32.0 °F - 30.0 °F 92% 30.20 in 10.0 mi Calm Calm - N/A   Clear
9:53 PM 30.9 °F - 28.9 °F 92% 30.20 in 9.0 mi Calm Calm - N/A   Clear
10:53 PM 35.1 °F 26.9 °F 28.9 °F 78% 30.21 in 10.0 mi NNE 11.5 mph 16.1 mph N/A   Clear
11:53 PM 42.1 °F 37.1 °F 35.1 °F 76% 30.22 in 10.0 mi NNE 8.1 mph - N/A   Clear